Home > Weather > Pamplona > Past weeks

Flag for Spain Past Weather in Pamplona, Spain — Yesterday and Last 2 Weeks

Now
59 °F

Cool.


Feels Like: 58 °F
Forecast: 60 / 91 °F
Wind: 8 mph from Northwest

Location: Pamplona / Noain

Current Time: Jul 28, 2016 at 3:07:21 AM

Latest Report: Jul 28, 2016 at 2:30 AM


Visibility: N/A

Pressure: 30.21 "Hg

Humidity: 77%

Dew Point: 52 °F

Location of PamplonaLocation

Past Weather in Pamplona — Graph

°F

Pamplona Temperature Yesterday

Maximum temperature yesterday: 75 °F (at 2:30 PM)
Minimum temperature yesterday: 61 °F (at 11:00 PM)
Average temperature yesterday: 67 °F

High & Low Weather Summary for the Past Weeks

 TemperatureHumidityPressure
High100 °F (Jul 19, 5:00 PM)94% (Jul 13, 7:30 AM)30.36 "Hg (Jul 13, 7:30 AM)
Low50 °F (Jul 15, 6:00 AM)12% (Jul 19, 7:00 PM)29.98 "Hg (Jul 19, 7:00 PM)
Average70 °F60%30.17 "Hg
* Reported Jul 13 5:30 AM — Jul 28 2:00 AM, Pamplona, Weather by CustomWeather, © 2016

Note: Actual official high and low records may vary slightly from our data, if they occured in-between our weather recording intervals... More about our weather records

Advertising

Pamplona Weather History for the Previous 24 Hours

Scroll right to see more
 ConditionsComfort  
Time TempWeatherWind HumidityBarometerVisibility
2:00 AM
Thu, Jul 28
59 °FCool.8 mph77%30.21 "HgN/A
1:30 AM59 °FCool.7 mph77%30.21 "HgN/A
1:00 AM59 °FCool.10 mph77%30.21 "HgN/A
12:30 AM61 °FCool.9 mph72%30.21 "HgN/A
12:00 AM61 °FPassing clouds.12 mph72%30.21 "HgN/A
11:30 PM
Wed, Jul 27
61 °FPassing clouds.14 mph72%30.21 "HgN/A
11:00 PM61 °FPassing clouds.15 mph72%30.21 "HgN/A
10:30 PM63 °FPassing clouds.16 mph68%30.21 "HgN/A
10:00 PM63 °FPassing clouds.15 mph73%30.21 "HgN/A
9:30 PM64 °FPassing clouds.15 mph68%30.18 "HgN/A
9:00 PM66 °FPassing clouds.18 mph64%30.18 "HgN/A
8:30 PM66 °FPassing clouds.22 mph64%30.18 "HgN/A
8:00 PM68 °FPassing clouds.18 mph60%30.18 "HgN/A
7:30 PM70 °FPassing clouds.20 mph57%30.18 "HgN/A
7:00 PM72 °FPassing clouds.20 mph53%30.18 "HgN/A
6:30 PM72 °FPassing clouds.20 mph53%30.18 "HgN/A
6:00 PM73 °FPassing clouds.21 mph50%30.15 "HgN/A
5:30 PM73 °FPassing clouds.20 mph50%30.18 "HgN/A
5:00 PM73 °FPassing clouds.21 mph50%30.18 "HgN/A
4:30 PM75 °FPassing clouds.18 mph50%30.18 "HgN/A
3:30 PM75 °FPassing clouds.20 mph47%30.18 "HgN/A
3:00 PM73 °FPassing clouds.18 mph50%30.18 "HgN/A
2:30 PM75 °FPassing clouds.16 mph47%30.21 "HgN/A
2:00 PM73 °FPassing clouds.17 mph50%30.21 "HgN/A
1:30 PM73 °FPassing clouds.17 mph53%30.21 "HgN/A
1:00 PM73 °FPassing clouds.17 mph50%30.21 "HgN/A
12:30 PM72 °FPassing clouds.20 mph53%30.21 "HgN/A
12:00 PM70 °FPassing clouds.16 mph57%30.21 "HgN/A
11:30 AM70 °FPassing clouds.16 mph57%30.21 "HgN/A
11:00 AM70 °FScattered clouds.16 mph57%30.21 "HgN/A
10:30 AM66 °FScattered clouds.13 mph64%30.21 "HgN/A
10:00 AM66 °FScattered clouds.16 mph68%30.21 "HgN/A
9:30 AM64 °FScattered clouds.13 mph68%30.21 "HgN/A
9:00 AM64 °FPartly sunny.10 mph73%30.21 "HgN/A
8:30 AM64 °FScattered clouds.9 mph73%30.21 "HgN/A
8:00 AM64 °FScattered clouds.12 mph73%30.21 "HgN/A
7:30 AM64 °FPassing clouds.12 mph73%30.21 "HgN/A
7:00 AM64 °FPassing clouds.8 mph73%30.21 "HgN/A
6:30 AM64 °FPassing clouds.8 mph78%30.21 "HgN/A
6:00 AM64 °FPassing clouds.10 mph78%30.21 "HgN/A
5:30 AM64 °FPassing clouds.12 mph78%30.21 "HgN/A
5:00 AM64 °FPassing clouds.10 mph78%30.21 "HgN/A
4:30 AM64 °FOvercast.10 mph78%30.21 "HgN/A
4:00 AM64 °FOvercast.12 mph83%30.21 "HgN/A
3:30 AM64 °FOvercast.10 mph83%30.21 "HgN/A
3:00 AM64 °FOvercast.14 mph83%30.21 "HgN/A
Weather by CustomWeather, © 2016

See weather overviewHow to use our weather pages